Change the Weather History Date:

Wednesday, July 24, 2013

  Actual Average Record
Temperature  
Mean Temperature 67 °F 72 °F  
Max Temperature 82 °F 84 °F 105 °F (1940)
Min Temperature 52 °F 60 °F 47 °F (1955)
Degree Days  
Heating Degree Days 0 0  
Month to date heating degree days 1 3  
Since 1 June heating degree days 70 65  
Since 1 July heating degree days 1 3  
Cooling Degree Days 2 7  
Month to date cooling degree days 197 157  
Year to date cooling degree days 339 274  
Since 1 June cooling degree days 314 251  
Growing Degree Days 18 (Base 50)    
Moisture  
Dew Point 58 °F    
Average Humidity 73    
Maximum Humidity 100    
Minimum Humidity 45    
Precipitation  
Precipitation 0.00 in 0.10 in 3.18 in (1993)
Month to date precipitation 2.51 2.86  
Year to date precipitation 17.43 13.58  
Sea Level Pressure  
Sea Level Pressure 29.98 in    
Wind  
Wind Speed 4 mph (WNW)    
Max Wind Speed 14 mph    
Max Gust Speed 22 mph    
T = Trace of Precipitation, MM = Missing Value Source: NWS Daily Summary

Daily Weather History Graph

Daily Weather History Graph

Search for Another Location

Airport or City:

Trip Planner

Search our weather history database for the weather conditions in past years. The results will help you decide how hot, cold, wet, or windy it might be!

Date:

Astronomy

Jul. 24, 2013 Rise Set
Actual Time 6:02 AM CDT 9:05 PM CDT
Civil Twilight 5:27 AM CDT 9:40 PM CDT
Nautical Twilight 4:41 AM CDT 10:26 PM CDT
Astronomical Twilight 3:46 AM CDT 11:20 PM CDT
Moon 9:59 PM CDT (7/24) 8:34 AM CDT (7/24)
Length of Visible Light 16h 13m
Length of Day
15h 03m
Waning Gibbous, 94% of the Moon is Illuminated
Jul 24
Waning Gibbous
Jul 29
Last Quarter
Aug 6
New
Aug 14
First Quarter
Aug 20
Full

Hourly Weather History & Observations

Time (CDT) Temp. Heat Index Dew Point Humidity Pressure Visibility Wind Dir Wind Speed Gust Speed Precip Events Conditions
12:56 AM 59.0 °F - 57.0 °F 93% 30.01 in - Calm Calm - N/A   Unknown
1:56 AM 59.0 °F - 57.0 °F 93% 30.01 in - NNW 3.5 mph - N/A   Unknown
2:56 AM 59.0 °F - 57.0 °F 93% 30.01 in - Calm Calm - N/A   Unknown
3:56 AM 57.0 °F - 55.0 °F 93% 30.02 in - NNW 3.5 mph - N/A   Unknown
4:56 AM 55.0 °F - 54.0 °F 96% 30.03 in - Calm Calm - N/A   Unknown
5:56 AM 54.0 °F - 53.1 °F 97% 30.03 in - Calm Calm - N/A   Unknown
6:56 AM 55.0 °F - 54.0 °F 96% 30.04 in - Calm Calm - N/A   Unknown
7:56 AM 63.0 °F - 57.9 °F 84% 30.04 in - Calm Calm - N/A   Unknown
8:56 AM 68.0 °F - 57.0 °F 68% 30.04 in - Calm Calm - N/A   Unknown
9:56 AM 72.0 °F - 59.0 °F 64% 30.03 in - Calm Calm - N/A   Unknown
10:56 AM 75.0 °F - 57.9 °F 55% 30.02 in - NW 8.1 mph - N/A   Unknown
11:56 AM 75.9 °F - 55.0 °F 48% 30.02 in - WNW 3.5 mph - N/A   Unknown
12:56 PM 77.0 °F - 55.9 °F 48% 30.00 in - WNW 5.8 mph - N/A   Unknown
1:56 PM 79.0 °F - 57.9 °F 48% 29.98 in - Variable 4.6 mph - N/A   Unknown
2:56 PM 79.0 °F - 57.0 °F 47% 29.96 in - West 6.9 mph - N/A   Unknown
3:56 PM 81.0 °F 81.1 °F 57.9 °F 45% 29.95 in - West 12.7 mph - N/A   Unknown
4:56 PM 81.0 °F 81.1 °F 57.9 °F 45% 29.94 in - West 10.4 mph - N/A   Unknown
5:56 PM 81.0 °F 81.3 °F 59.0 °F 47% 29.91 in - West 9.2 mph - N/A   Unknown
6:56 PM 80.1 °F 81.1 °F 61.0 °F 52% 29.89 in - WNW 8.1 mph - N/A   Unknown
7:56 PM 78.1 °F - 62.1 °F 58% 29.89 in - WSW 5.8 mph - N/A   Unknown
8:56 PM 73.9 °F - 63.0 °F 68% 29.88 in - West 4.6 mph - N/A   Unknown
9:56 PM 70.0 °F - 62.1 °F 76% 29.89 in - West 5.8 mph - N/A   Unknown
10:56 PM 66.9 °F - 61.0 °F 81% 29.91 in - NNW 5.8 mph - N/A   Unknown
11:56 PM 63.0 °F - 61.0 °F 93% 29.91 in - Calm Calm - N/A   Unknown